AirNav   Air Wisconsin Up To $57,000 Bonus
 
 817 users online  

21GE Deer Crossing Airport
Cleveland, Georgia, USA

GOING TO CLEVELAND?


FAA INFORMATION EFFECTIVE 11 AUGUST 2022

Location

FAA Identifier: 21GE
Lat/Long: 34-32-59.0000N 083-49-20.0000W
34-32.983333N 083-49.333333W
34.5497222,-83.8222222
(estimated)
Elevation: 1390 ft. / 423.7 m (surveyed)
From city: 4 miles SW of CLEVELAND, GA
Time zone: UTC -4 (UTC -5 during Standard Time)
Zip code: 30528

Airport Operations

Airport use: Private use. Permission required prior to landing
Activation date: 10/2005
Control tower: no
ARTCC: ATLANTA CENTER
FSS: MACON FLIGHT SERVICE STATION
Attendance: IRREG
Segmented circle: no

Airport Communications

WX AWOS-3 at AJR (13 nm E): 119.175 (706-778-3675)
WX ASOS at GVL (17 nm S): 126.475 (770-532-4687)

Nearby radio navigation aids

VOR radial/distance  VOR name  Freq  Var
HRSr169/24.0HARRIS VORTAC109.8000E
ODFr251/27.3FOOTHILLS VOR/DME113.4000E

 
NDB name  Hdg/Dist  Freq  Var  ID
FLOWERY BRANCH014/21.236503WFKV ..-. -.- ...-
CHERO067/37.541505WDJD -.. .--- -..
BARROW COUNTY348/38.640405WBMW -... -- .--

Airport Services

Runway Information

Runway 3/21

Dimensions: 1600 x 120 ft. / 488 x 37 m
Surface: turf
RUNWAY 3  RUNWAY 21
Traffic pattern: leftleft

Airport Ownership and Management from official FAA records

Ownership: Privately-owned
Owner: GEORGE TAYLOR
2155 THOMAS ROAD
CLEVELAND, GA 30528
Phone 706-865-4665
Manager: GEORGE TAYLOR
2155 THOMAS ROAD
CLEVELAND, GA 30528
Phone 706-865-4665

Airport Operational Statistics

Aircraft based on the field: 1
Single engine airplanes: 1
    

Additional Remarks

DEER ON & INVOF ARPT.
RY SHARED WITH HAYFIELD.
OWNER DESIRES APRT NOT BE CHARTED.
FOR CD CTC ATLANTA ARTCC AT 770-210-7692.

Instrument Procedures

There are no published instrument procedures at 21GE.

Some nearby airports with instrument procedures:

KAJR - Habersham County Airport (13 nm E)
KGVL - Lee Gilmer Memorial Airport (17 nm S)
KDZJ - Blairsville Airport (20 nm NW)
KJCA - Jackson County Airport (26 nm SE)
KTOC - Toccoa Airport-RG Letourneau Field (26 nm E)
 
Loc | Ops | Rwys | IFR | FBO | Links
Com | Nav | Svcs | Stats | Notes
Area around 21GE (Deer Crossing Airport)
 
Road maps at: MapQuest Bing Google
 
Aerial photo
No photo
 
Sectional chart

 
Airport distance calculator
Flying to Deer Crossing Airport? Find the distance to fly.

From to 21GE

Sunrise and sunset
Times for 13-Aug-2022
 Local
(UTC-4)
 Zulu
(UTC)
Morning civil twilight06:2910:29
Sunrise06:5510:55
Sunset20:2500:25
Evening civil twilight20:5200:52

Current date and time
Zulu (UTC)  14-Aug-2022 03:17:39
Local (UTC-4)  13-Aug-2022 23:17:39
 
METAR
KAJR 
13nm E 
140255Z AUTO 00000KT 10SM BKN080 24/18 A3011 RMK AO2 T02380181
KGVL 
17nm S 
140253Z AUTO 00000KT 10SM OVC095 24/16 A3012 RMK AO2 SLP182 T02390161 51006
KDZJ 
20nm NW 
140255Z AUTO 01003KT 10SM OVC075 20/20 A3015 RMK AO2 P0001 T02040198 60001
KJCA 
26nm SE 
140255Z AUTO 00000KT 10SM BKN100 20/19 A3009 RMK AO2 T02030188
KTOC 
26nm E 
140255Z AUTO 00000KT 10SM CLR 23/19 A3009 RMK AO2 T02270191
TAF
KAHN 
43nm SE 
140130Z 1402/1424 00000KT P6SM SKC FM140400 VRB03KT P6SM FEW025 FM141400 20005KT P6SM FEW050
KPDK 
46nm SW 
140130Z 1402/1424 11003KT P6SM SKC FM141400 19004KT P6SM FEW030
NOTAMs
Click for the latest NOTAMs
NOTAMs are issued by the DoD/FAA and will open in a separate window not controlled by AirNav.

 

 
 

Would you like to see your business listed on this page?

 If your business provides an interesting product or service to pilots, flight crews, aircraft, or users of the Deer Crossing Airport, you should consider listing it here.  To start the listing process, click on the button below
 
Add a business
 

Other Pages about Deer Crossing Airport

Update a link
 
Copyright © AirNav, LLC. All rights reserved. Privacy Policy  Contact